Year,Month,Day,Hour,Minute,Value (Times are PST for temperature in C)
2015,07,01,00,00,15.30
2015,07,01,00,01,15.30
2015,07,01,00,02,15.30
2015,07,01,00,03,15.30
2015,07,01,00,04,15.30
2015,07,01,00,05,15.30
2015,07,01,00,06,15.20
2015,07,01,00,07,15.20
2015,07,01,00,08,15.20
2015,07,01,00,09,15.20
2015,07,01,00,10,15.20
2015,07,01,00,11,15.20
2015,07,01,00,12,15.20
2015,07,01,00,13,15.20
2015,07,01,00,14,15.20
2015,07,01,00,15,15.20
2015,07,01,00,16,15.20
2015,07,01,00,17,15.10
2015,07,01,00,18,15.10
2015,07,01,00,19,15.10
2015,07,01,00,20,15.10
2015,07,01,00,21,15.10
2015,07,01,00,22,15.20
2015,07,01,00,23,15.20
2015,07,01,00,24,15.20
2015,07,01,00,25,15.20
2015,07,01,00,26,15.20
2015,07,01,00,27,15.20
2015,07,01,00,28,15.30
2015,07,01,00,29,15.30
2015,07,01,00,30,15.30
2015,07,01,00,31,15.30
2015,07,01,00,32,15.30
2015,07,01,00,33,15.20
2015,07,01,00,34,15.20
2015,07,01,00,35,15.20
2015,07,01,00,36,15.20
2015,07,01,00,37,15.20
2015,07,01,00,38,15.10
2015,07,01,00,39,15.00
2015,07,01,00,40,14.90
2015,07,01,00,41,14.90
2015,07,01,00,42,14.90
2015,07,01,00,43,14.90
2015,07,01,00,44,14.80
2015,07,01,00,45,14.80
2015,07,01,00,46,14.80
2015,07,01,00,47,14.80
2015,07,01,00,48,14.80
2015,07,01,00,49,14.80
2015,07,01,00,50,14.80
2015,07,01,00,51,14.80
2015,07,01,00,52,14.80
2015,07,01,00,53,14.80
2015,07,01,00,54,14.70
2015,07,01,00,55,14.70
2015,07,01,00,56,14.70
2015,07,01,00,57,14.70
2015,07,01,00,58,14.70
2015,07,01,00,59,14.70
2015,07,01,01,00,14.70
2015,07,01,01,01,14.70
2015,07,01,01,02,14.60
2015,07,01,01,03,14.70
2015,07,01,01,04,14.70
2015,07,01,01,05,14.70
2015,07,01,01,06,14.70
2015,07,01,01,07,14.70
2015,07,01,01,08,14.60
2015,07,01,01,09,14.60
2015,07,01,01,10,14.60
2015,07,01,01,11,14.60
2015,07,01,01,12,14.60
2015,07,01,01,13,14.60
2015,07,01,01,14,14.60
2015,07,01,01,15,14.60
2015,07,01,01,16,14.70
2015,07,01,01,17,14.70
2015,07,01,01,18,14.70
2015,07,01,01,19,14.70
2015,07,01,01,20,14.70
2015,07,01,01,21,14.60
2015,07,01,01,22,14.60
2015,07,01,01,23,14.60
2015,07,01,01,24,14.60
2015,07,01,01,25,14.60
2015,07,01,01,26,14.50
2015,07,01,01,27,14.50
2015,07,01,01,28,14.40
2015,07,01,01,29,14.40
2015,07,01,01,30,14.30
2015,07,01,01,31,14.30
2015,07,01,01,32,14.30
2015,07,01,01,33,14.20
2015,07,01,01,34,14.20
2015,07,01,01,35,14.20
2015,07,01,01,36,14.20
2015,07,01,01,37,14.20
2015,07,01,01,38,14.20
2015,07,01,01,39,14.20
2015,07,01,01,40,14.20
2015,07,01,01,41,14.20
2015,07,01,01,42,14.30
2015,07,01,01,43,14.30
2015,07,01,01,44,14.30
2015,07,01,01,45,14.30
2015,07,01,01,46,14.40
2015,07,01,01,47,14.40
2015,07,01,01,48,14.50
2015,07,01,01,49,14.50
2015,07,01,01,50,14.50
2015,07,01,01,51,14.50
2015,07,01,01,52,14.50
2015,07,01,01,53,14.50
2015,07,01,01,54,14.50
2015,07,01,01,55,14.50
2015,07,01,01,56,14.50
2015,07,01,01,57,14.50
2015,07,01,01,58,14.50
2015,07,01,01,59,14.50
2015,07,01,02,00,14.50
2015,07,01,02,01,14.50
2015,07,01,02,02,14.50
2015,07,01,02,03,14.40
2015,07,01,02,04,14.40
2015,07,01,02,05,14.30
2015,07,01,02,06,14.30
2015,07,01,02,07,14.20
2015,07,01,02,08,14.20
2015,07,01,02,09,14.10
2015,07,01,02,10,14.10
2015,07,01,02,11,14.00
2015,07,01,02,12,14.00
2015,07,01,02,13,14.00
2015,07,01,02,14,13.90
2015,07,01,02,15,13.90
2015,07,01,02,16,13.90
2015,07,01,02,17,13.90
2015,07,01,02,18,13.80
2015,07,01,02,19,13.80
2015,07,01,02,20,13.70
2015,07,01,02,21,13.70
2015,07,01,02,22,13.70
2015,07,01,02,23,13.70
2015,07,01,02,24,13.70
2015,07,01,02,25,13.70
2015,07,01,02,26,13.70
2015,07,01,02,27,13.60
2015,07,01,02,28,13.60
2015,07,01,02,29,13.60
2015,07,01,02,30,13.60
2015,07,01,02,31,13.60
2015,07,01,02,32,13.60
2015,07,01,02,33,13.60
2015,07,01,02,34,13.60
2015,07,01,02,35,13.50
2015,07,01,02,36,13.50
2015,07,01,02,37,13.50
2015,07,01,02,38,13.50
2015,07,01,02,39,13.50
2015,07,01,02,40,13.50
2015,07,01,02,41,13.40
2015,07,01,02,42,13.40
2015,07,01,02,43,13.40
2015,07,01,02,44,13.40
2015,07,01,02,45,13.40
2015,07,01,02,46,13.30
2015,07,01,02,47,13.30
2015,07,01,02,48,13.30
2015,07,01,02,49,13.30
2015,07,01,02,50,13.30
2015,07,01,02,51,13.30
2015,07,01,02,52,13.30
2015,07,01,02,53,13.30
2015,07,01,02,54,13.30
2015,07,01,02,55,13.30
2015,07,01,02,56,13.30
2015,07,01,02,57,13.30
2015,07,01,02,58,13.30
2015,07,01,02,59,13.30
2015,07,01,03,00,13.30
2015,07,01,03,01,13.30
2015,07,01,03,02,13.30
2015,07,01,03,03,13.30
2015,07,01,03,04,13.30
2015,07,01,03,05,13.30
2015,07,01,03,06,13.20
2015,07,01,03,07,13.20
2015,07,01,03,08,13.20
2015,07,01,03,09,13.20
2015,07,01,03,10,13.20
2015,07,01,03,11,13.20
2015,07,01,03,12,13.20
2015,07,01,03,13,13.20
2015,07,01,03,14,13.30
2015,07,01,03,15,13.30
2015,07,01,03,16,13.30
2015,07,01,03,17,13.30
2015,07,01,03,18,13.30
2015,07,01,03,19,13.40
2015,07,01,03,20,13.40
2015,07,01,03,21,13.40
2015,07,01,03,22,13.40
2015,07,01,03,23,13.40
2015,07,01,03,24,13.40
2015,07,01,03,25,13.30
2015,07,01,03,26,13.40
2015,07,01,03,27,13.40
2015,07,01,03,28,13.40
2015,07,01,03,29,13.30
2015,07,01,03,30,13.30
2015,07,01,03,31,13.30
2015,07,01,03,32,13.30
2015,07,01,03,33,13.30
2015,07,01,03,34,13.30
2015,07,01,03,35,13.30
2015,07,01,03,36,13.30
2015,07,01,03,37,13.30
2015,07,01,03,38,13.30
2015,07,01,03,39,13.30
2015,07,01,03,40,13.20
2015,07,01,03,41,13.20
2015,07,01,03,42,13.20
2015,07,01,03,43,13.20
2015,07,01,03,44,13.20
2015,07,01,03,45,13.20
2015,07,01,03,46,13.20
2015,07,01,03,47,13.10
2015,07,01,03,48,13.10
2015,07,01,03,49,13.20
2015,07,01,03,50,13.20
2015,07,01,03,51,13.20
2015,07,01,03,52,13.20
2015,07,01,03,53,13.20
2015,07,01,03,54,13.20
2015,07,01,03,55,13.20
2015,07,01,03,56,13.20
2015,07,01,03,57,13.20
2015,07,01,03,58,13.20
2015,07,01,03,59,13.20
2015,07,01,04,00,13.20
2015,07,01,04,01,13.20
2015,07,01,04,02,13.20
2015,07,01,04,03,13.20
2015,07,01,04,04,13.20
2015,07,01,04,05,13.10
2015,07,01,04,06,13.10
2015,07,01,04,07,13.10
2015,07,01,04,08,13.10
2015,07,01,04,09,13.00
2015,07,01,04,10,13.00
2015,07,01,04,11,13.00
2015,07,01,04,12,13.00
2015,07,01,04,13,12.90
2015,07,01,04,14,12.90
2015,07,01,04,15,12.90
2015,07,01,04,16,12.90
2015,07,01,04,17,12.90
2015,07,01,04,18,12.90
2015,07,01,04,19,13.00
2015,07,01,04,20,13.00
2015,07,01,04,21,13.00
2015,07,01,04,22,12.90
2015,07,01,04,23,12.90
2015,07,01,04,24,12.90
2015,07,01,04,25,12.90
2015,07,01,04,26,12.90
2015,07,01,04,27,12.80
2015,07,01,04,28,12.80
2015,07,01,04,29,12.80
2015,07,01,04,30,12.80
2015,07,01,04,31,12.80
2015,07,01,04,32,12.80
2015,07,01,04,33,12.80
2015,07,01,04,34,12.80
2015,07,01,04,35,12.90
2015,07,01,04,36,12.90
2015,07,01,04,37,12.90
2015,07,01,04,38,12.90
2015,07,01,04,39,12.90
2015,07,01,04,40,12.90
2015,07,01,04,41,12.90
2015,07,01,04,42,12.90
2015,07,01,04,43,12.90
2015,07,01,04,44,12.90
2015,07,01,04,45,12.90
2015,07,01,04,46,12.90
2015,07,01,04,47,12.90
2015,07,01,04,48,12.80
2015,07,01,04,49,12.80
2015,07,01,04,50,12.80
2015,07,01,04,51,12.80
2015,07,01,04,52,12.80
2015,07,01,04,53,12.80
2015,07,01,04,54,12.80
2015,07,01,04,55,12.80
2015,07,01,04,56,12.80
2015,07,01,04,57,12.90
2015,07,01,04,58,12.90
2015,07,01,04,59,12.90
2015,07,01,05,00,12.90
2015,07,01,05,01,12.90
2015,07,01,05,02,12.90
2015,07,01,05,03,12.90
2015,07,01,05,04,12.90
2015,07,01,05,05,12.90
2015,07,01,05,06,12.90
2015,07,01,05,07,12.90
2015,07,01,05,08,12.90
2015,07,01,05,09,12.90
2015,07,01,05,10,12.90
2015,07,01,05,11,12.90
2015,07,01,05,12,12.90
2015,07,01,05,13,12.90
2015,07,01,05,14,13.00
2015,07,01,05,15,13.00
2015,07,01,05,16,13.00
2015,07,01,05,17,13.10
2015,07,01,05,18,13.10
2015,07,01,05,19,13.10
2015,07,01,05,20,13.10
2015,07,01,05,21,13.00
2015,07,01,05,22,13.00
2015,07,01,05,23,13.00
2015,07,01,05,24,13.00
2015,07,01,05,25,13.00
2015,07,01,05,26,13.00
2015,07,01,05,27,13.00
2015,07,01,05,28,13.00
2015,07,01,05,29,13.00
2015,07,01,05,30,13.00
2015,07,01,05,31,13.00
2015,07,01,05,32,13.00
2015,07,01,05,33,13.00
2015,07,01,05,34,13.00
2015,07,01,05,35,13.00
2015,07,01,05,36,13.00
2015,07,01,05,37,13.10
2015,07,01,05,38,13.10
2015,07,01,05,39,13.10
2015,07,01,05,40,13.10
2015,07,01,05,41,13.10
2015,07,01,05,42,13.10
2015,07,01,05,43,13.10
2015,07,01,05,44,13.10
2015,07,01,05,45,13.10
2015,07,01,05,46,13.10
2015,07,01,05,47,13.10
2015,07,01,05,48,13.10
2015,07,01,05,49,13.10
2015,07,01,05,50,13.10
2015,07,01,05,51,13.00
2015,07,01,05,52,13.00
2015,07,01,05,53,13.00
2015,07,01,05,54,13.00
2015,07,01,05,55,13.00
2015,07,01,05,56,13.00
2015,07,01,05,57,13.00
2015,07,01,05,58,13.10
2015,07,01,05,59,13.10
2015,07,01,06,00,13.10
2015,07,01,06,01,13.10
2015,07,01,06,02,13.10
2015,07,01,06,03,13.20
2015,07,01,06,04,13.20
2015,07,01,06,05,13.20
2015,07,01,06,06,13.30
2015,07,01,06,07,13.30
2015,07,01,06,08,13.30
2015,07,01,06,09,13.30
2015,07,01,06,10,13.30
2015,07,01,06,11,13.30
2015,07,01,06,12,13.40
2015,07,01,06,13,13.40
2015,07,01,06,14,13.40
2015,07,01,06,15,13.30
2015,07,01,06,16,13.30
2015,07,01,06,17,13.30
2015,07,01,06,18,13.30
2015,07,01,06,19,13.30
2015,07,01,06,20,13.40
2015,07,01,06,21,13.40
2015,07,01,06,22,13.40
2015,07,01,06,23,13.50
2015,07,01,06,24,13.50
2015,07,01,06,25,13.60
2015,07,01,06,26,13.70
2015,07,01,06,27,13.70
2015,07,01,06,28,13.80
2015,07,01,06,29,13.90
2015,07,01,06,30,13.90
2015,07,01,06,31,14.00
2015,07,01,06,32,14.00
2015,07,01,06,33,14.00
2015,07,01,06,34,14.10
2015,07,01,06,35,14.10
2015,07,01,06,36,14.10
2015,07,01,06,37,14.20
2015,07,01,06,38,14.20
2015,07,01,06,39,14.20
2015,07,01,06,40,14.20
2015,07,01,06,41,14.20
2015,07,01,06,42,14.30
2015,07,01,06,43,14.30
2015,07,01,06,44,14.40
2015,07,01,06,45,14.50
2015,07,01,06,46,14.50
2015,07,01,06,47,14.60
2015,07,01,06,48,14.70
2015,07,01,06,49,14.70
2015,07,01,06,50,14.60
2015,07,01,06,51,14.60
2015,07,01,06,52,14.50
2015,07,01,06,53,14.50
2015,07,01,06,54,14.50
2015,07,01,06,55,14.50
2015,07,01,06,56,14.50
2015,07,01,06,57,14.60
2015,07,01,06,58,14.70
2015,07,01,06,59,14.80
2015,07,01,07,00,14.90
2015,07,01,07,01,14.90
2015,07,01,07,02,15.00
2015,07,01,07,03,15.00
2015,07,01,07,04,15.10
2015,07,01,07,05,15.10
2015,07,01,07,06,15.20
2015,07,01,07,07,15.30
2015,07,01,07,08,15.40
2015,07,01,07,09,15.50
2015,07,01,07,10,15.60
2015,07,01,07,11,15.70
2015,07,01,07,12,15.80
2015,07,01,07,13,15.80
2015,07,01,07,14,15.90
2015,07,01,07,15,16.00
2015,07,01,07,16,16.10
2015,07,01,07,17,16.10
2015,07,01,07,18,16.20
2015,07,01,07,19,16.30
2015,07,01,07,20,16.40
2015,07,01,07,21,16.40
2015,07,01,07,22,16.50
2015,07,01,07,23,16.60
2015,07,01,07,24,16.60
2015,07,01,07,25,16.70
2015,07,01,07,26,16.70
2015,07,01,07,27,16.80
2015,07,01,07,28,16.80
2015,07,01,07,29,16.90
2015,07,01,07,30,16.90
2015,07,01,07,31,16.90
2015,07,01,07,32,17.00
2015,07,01,07,33,17.00
2015,07,01,07,34,17.00
2015,07,01,07,35,17.00
2015,07,01,07,36,17.10
2015,07,01,07,37,17.10
2015,07,01,07,38,17.30
2015,07,01,07,39,17.30
2015,07,01,07,40,17.30
2015,07,01,07,41,17.30
2015,07,01,07,42,17.30
2015,07,01,07,43,17.40
2015,07,01,07,44,17.40
2015,07,01,07,45,17.50
2015,07,01,07,46,17.50
2015,07,01,07,47,17.70
2015,07,01,07,48,17.70
2015,07,01,07,49,17.80
2015,07,01,07,50,17.70
2015,07,01,07,51,17.60
2015,07,01,07,52,17.30
2015,07,01,07,53,17.00
2015,07,01,07,54,16.70
2015,07,01,07,55,16.40
2015,07,01,07,56,16.20
2015,07,01,07,57,16.10
2015,07,01,07,58,16.00
2015,07,01,07,59,15.90
2015,07,01,08,00,15.90
2015,07,01,08,01,15.90
2015,07,01,08,02,16.00
2015,07,01,08,03,16.10
2015,07,01,08,04,16.10
2015,07,01,08,05,16.00
2015,07,01,08,06,15.90
2015,07,01,08,07,15.80
2015,07,01,08,08,15.80
2015,07,01,08,09,15.70
2015,07,01,08,10,15.70
2015,07,01,08,11,15.80
2015,07,01,08,12,15.80
2015,07,01,08,13,15.80
2015,07,01,08,14,15.70
2015,07,01,08,15,15.60
2015,07,01,08,16,15.40
2015,07,01,08,17,15.30
2015,07,01,08,18,15.30
2015,07,01,08,19,15.30
2015,07,01,08,20,15.30
2015,07,01,08,21,15.30
2015,07,01,08,22,15.40
2015,07,01,08,23,15.50
2015,07,01,08,24,15.50
2015,07,01,08,25,15.60
2015,07,01,08,26,15.70
2015,07,01,08,27,15.70
2015,07,01,08,28,15.80
2015,07,01,08,29,15.80
2015,07,01,08,30,15.80
2015,07,01,08,31,15.80
2015,07,01,08,32,15.90
2015,07,01,08,33,15.90
2015,07,01,08,34,15.90
2015,07,01,08,35,15.90
2015,07,01,08,36,16.00
2015,07,01,08,37,16.00
2015,07,01,08,38,15.90
2015,07,01,08,39,15.90
2015,07,01,08,40,15.90
2015,07,01,08,41,16.00
2015,07,01,08,42,16.10
2015,07,01,08,43,16.10
2015,07,01,08,44,16.20
2015,07,01,08,45,16.30
2015,07,01,08,46,16.30
2015,07,01,08,47,16.30
2015,07,01,08,48,16.30
2015,07,01,08,49,16.40
2015,07,01,08,50,16.50
2015,07,01,08,51,16.60
2015,07,01,08,52,16.60
2015,07,01,08,53,16.60
2015,07,01,08,54,16.60
2015,07,01,08,55,16.70
2015,07,01,08,56,16.70
2015,07,01,08,57,16.70
2015,07,01,08,58,16.80
2015,07,01,08,59,16.90
2015,07,01,09,00,16.90
2015,07,01,09,01,17.00
2015,07,01,09,02,17.00
2015,07,01,09,03,17.00
2015,07,01,09,04,17.00
2015,07,01,09,05,17.10
2015,07,01,09,06,17.10
2015,07,01,09,07,17.20
2015,07,01,09,08,17.30
2015,07,01,09,09,17.30
2015,07,01,09,10,17.40
2015,07,01,09,11,17.40
2015,07,01,09,12,17.40
2015,07,01,09,13,17.40
2015,07,01,09,14,17.40
2015,07,01,09,15,17.30
2015,07,01,09,16,17.30
2015,07,01,09,17,17.30
2015,07,01,09,18,17.30
2015,07,01,09,19,17.30
2015,07,01,09,20,17.20
2015,07,01,09,21,17.20
2015,07,01,09,22,17.20
2015,07,01,09,23,17.20
2015,07,01,09,24,17.10
2015,07,01,09,25,17.00
2015,07,01,09,26,17.00
2015,07,01,09,27,17.00
2015,07,01,09,28,17.00
2015,07,01,09,29,17.00
2015,07,01,09,30,17.00
2015,07,01,09,31,17.10
2015,07,01,09,32,17.10
2015,07,01,09,33,17.20
2015,07,01,09,34,17.30
2015,07,01,09,35,17.40
2015,07,01,09,36,17.50
2015,07,01,09,37,17.50
2015,07,01,09,38,17.70
2015,07,01,09,39,17.80
2015,07,01,09,40,17.90
2015,07,01,09,41,17.90
2015,07,01,09,42,18.00
2015,07,01,09,43,18.10
2015,07,01,09,44,18.10
2015,07,01,09,45,18.20
2015,07,01,09,46,18.20
2015,07,01,09,47,18.20
2015,07,01,09,48,18.20
2015,07,01,09,49,18.20
2015,07,01,09,50,18.40
2015,07,01,09,51,18.50
2015,07,01,09,52,18.50
2015,07,01,09,53,18.50
2015,07,01,09,54,18.60
2015,07,01,09,55,18.70
2015,07,01,09,56,18.80
2015,07,01,09,57,18.90
2015,07,01,09,58,19.00
2015,07,01,09,59,19.10
2015,07,01,10,00,19.10
2015,07,01,10,01,19.10
2015,07,01,10,02,19.10
2015,07,01,10,03,19.20
2015,07,01,10,04,19.20
2015,07,01,10,05,19.20
2015,07,01,10,06,19.20
2015,07,01,10,07,19.30
2015,07,01,10,08,19.40
2015,07,01,10,09,19.40
2015,07,01,10,10,19.50
2015,07,01,10,11,19.60
2015,07,01,10,12,19.80
2015,07,01,10,13,19.80
2015,07,01,10,14,19.90
2015,07,01,10,15,19.90
2015,07,01,10,16,20.00
2015,07,01,10,17,20.10
2015,07,01,10,18,20.10
2015,07,01,10,19,20.20
2015,07,01,10,20,20.20
2015,07,01,10,21,20.20
2015,07,01,10,22,20.30
2015,07,01,10,23,20.40
2015,07,01,10,24,20.40
2015,07,01,10,25,20.40
2015,07,01,10,26,20.40
2015,07,01,10,27,20.40
2015,07,01,10,28,20.40
2015,07,01,10,29,20.20
2015,07,01,10,30,20.20
2015,07,01,10,31,20.20
2015,07,01,10,32,20.10
2015,07,01,10,33,19.90
2015,07,01,10,34,19.90
2015,07,01,10,35,19.90
2015,07,01,10,36,19.90
2015,07,01,10,37,19.90
2015,07,01,10,38,19.80
2015,07,01,10,39,19.80
2015,07,01,10,40,19.80
2015,07,01,10,41,19.90
2015,07,01,10,42,19.80
2015,07,01,10,43,19.80
2015,07,01,10,44,19.80
2015,07,01,10,45,19.70
2015,07,01,10,46,19.60
2015,07,01,10,47,19.60
2015,07,01,10,48,19.50
2015,07,01,10,49,19.40
2015,07,01,10,50,19.30
2015,07,01,10,51,19.20
2015,07,01,10,52,19.20
2015,07,01,10,53,19.20
2015,07,01,10,54,19.20
2015,07,01,10,55,19.20
2015,07,01,10,56,19.20
2015,07,01,10,57,19.30
2015,07,01,10,58,19.30
2015,07,01,10,59,19.30
2015,07,01,11,00,19.40
2015,07,01,11,01,19.40
2015,07,01,11,02,19.40
2015,07,01,11,03,19.50
2015,07,01,11,04,19.70
2015,07,01,11,05,19.80
2015,07,01,11,06,19.90
2015,07,01,11,07,20.00
2015,07,01,11,08,20.10
2015,07,01,11,09,20.20
2015,07,01,11,10,20.20
2015,07,01,11,11,20.30
2015,07,01,11,12,20.50
2015,07,01,11,13,20.60
2015,07,01,11,14,20.70
2015,07,01,11,15,20.70
2015,07,01,11,16,20.80
2015,07,01,11,17,20.80
2015,07,01,11,18,21.00
2015,07,01,11,19,21.10
2015,07,01,11,20,21.30
2015,07,01,11,21,21.40
2015,07,01,11,22,21.50
2015,07,01,11,23,21.60
2015,07,01,11,24,21.60
2015,07,01,11,25,21.60
2015,07,01,11,26,21.60
2015,07,01,11,27,21.60
2015,07,01,11,28,21.70
2015,07,01,11,29,21.80
2015,07,01,11,30,22.00
2015,07,01,11,31,22.10
2015,07,01,11,32,22.20
2015,07,01,11,33,22.20
2015,07,01,11,34,22.10
2015,07,01,11,35,22.10
2015,07,01,11,36,22.20
2015,07,01,11,37,22.20
2015,07,01,11,38,22.20
2015,07,01,11,39,22.20
2015,07,01,11,40,22.20
2015,07,01,11,41,22.10
2015,07,01,11,42,22.10
2015,07,01,11,43,22.10
2015,07,01,11,44,22.20
2015,07,01,11,45,22.20
2015,07,01,11,46,22.20
2015,07,01,11,47,22.20
2015,07,01,11,48,22.10
2015,07,01,11,49,22.10
2015,07,01,11,50,22.10
2015,07,01,11,51,22.20
2015,07,01,11,52,22.20
2015,07,01,11,53,22.30
2015,07,01,11,54,22.40
2015,07,01,11,55,22.40
2015,07,01,11,56,22.40
2015,07,01,11,57,22.60
2015,07,01,11,58,22.60
2015,07,01,11,59,22.60
2015,07,01,12,00,22.60
2015,07,01,12,01,22.40
2015,07,01,12,02,22.30
2015,07,01,12,03,22.30
2015,07,01,12,04,22.40
2015,07,01,12,05,22.40
2015,07,01,12,06,22.30
2015,07,01,12,07,22.30
2015,07,01,12,08,22.30
2015,07,01,12,09,22.30
2015,07,01,12,10,22.40
2015,07,01,12,11,22.50
2015,07,01,12,12,22.50
2015,07,01,12,13,22.40
2015,07,01,12,14,22.30
2015,07,01,12,15,22.30
2015,07,01,12,16,22.40
2015,07,01,12,17,22.40
2015,07,01,12,18,22.40
2015,07,01,12,19,22.30
2015,07,01,12,20,22.30
2015,07,01,12,21,22.30
2015,07,01,12,22,22.40
2015,07,01,12,23,22.40
2015,07,01,12,24,22.50
2015,07,01,12,25,22.60
2015,07,01,12,26,22.80
2015,07,01,12,27,22.70
2015,07,01,12,28,22.70
2015,07,01,12,29,22.60
2015,07,01,12,30,22.50
2015,07,01,12,31,22.40
2015,07,01,12,32,22.50
2015,07,01,12,33,22.40
2015,07,01,12,34,22.40
2015,07,01,12,35,22.40
2015,07,01,12,36,22.30
2015,07,01,12,37,22.30
2015,07,01,12,38,22.20
2015,07,01,12,39,22.10
2015,07,01,12,40,22.00
2015,07,01,12,41,22.00
2015,07,01,12,42,22.00
2015,07,01,12,43,22.00
2015,07,01,12,44,22.10
2015,07,01,12,45,22.20
2015,07,01,12,46,22.30
2015,07,01,12,47,22.40
2015,07,01,12,48,22.40
2015,07,01,12,49,22.50
2015,07,01,12,50,22.50
2015,07,01,12,51,22.60
2015,07,01,12,52,22.70
2015,07,01,12,53,22.70
2015,07,01,12,54,22.80
2015,07,01,12,55,22.90
2015,07,01,12,56,22.80
2015,07,01,12,57,22.70
2015,07,01,12,58,22.60
2015,07,01,12,59,22.50
2015,07,01,13,00,22.60
2015,07,01,13,01,22.50
2015,07,01,13,02,22.50
2015,07,01,13,03,22.40
2015,07,01,13,04,22.40
2015,07,01,13,05,22.40
2015,07,01,13,06,22.20
2015,07,01,13,07,22.00
2015,07,01,13,08,21.90
2015,07,01,13,09,21.80
2015,07,01,13,10,21.60
2015,07,01,13,11,21.60
2015,07,01,13,12,21.60
2015,07,01,13,13,21.40
2015,07,01,13,14,21.30
2015,07,01,13,15,21.30
2015,07,01,13,16,21.30
2015,07,01,13,17,21.20
2015,07,01,13,18,21.30
2015,07,01,13,19,21.30
2015,07,01,13,20,21.20
2015,07,01,13,21,21.20
2015,07,01,13,22,21.10
2015,07,01,13,23,21.00
2015,07,01,13,24,21.00
2015,07,01,13,25,21.10
2015,07,01,13,26,21.00
2015,07,01,13,27,21.00
2015,07,01,13,28,21.00
2015,07,01,13,29,21.10
2015,07,01,13,30,21.30
2015,07,01,13,31,21.30
2015,07,01,13,32,21.30
2015,07,01,13,33,21.40
2015,07,01,13,34,21.50
2015,07,01,13,35,21.60
2015,07,01,13,36,21.60
2015,07,01,13,37,21.80
2015,07,01,13,38,21.90
2015,07,01,13,39,22.00
2015,07,01,13,40,22.10
2015,07,01,13,41,22.10
2015,07,01,13,42,22.00
2015,07,01,13,43,22.10
2015,07,01,13,44,22.20
2015,07,01,13,45,22.40
2015,07,01,13,46,22.50
2015,07,01,13,47,22.60
2015,07,01,13,48,22.70
2015,07,01,13,49,22.80
2015,07,01,13,50,22.80
2015,07,01,13,51,22.70
2015,07,01,13,52,22.60
2015,07,01,13,53,22.60
2015,07,01,13,54,22.60
2015,07,01,13,55,22.50
2015,07,01,13,56,22.50
2015,07,01,13,57,22.50
2015,07,01,13,58,22.40
2015,07,01,13,59,22.30
2015,07,01,14,00,22.30
2015,07,01,14,01,22.30
2015,07,01,14,02,22.30
2015,07,01,14,03,22.40
2015,07,01,14,04,22.40
2015,07,01,14,05,22.40
2015,07,01,14,06,22.50
2015,07,01,14,07,22.50
2015,07,01,14,08,22.50
2015,07,01,14,09,22.60
2015,07,01,14,10,22.60
2015,07,01,14,11,22.50
2015,07,01,14,12,22.50
2015,07,01,14,13,22.50
2015,07,01,14,14,22.30
2015,07,01,14,15,22.20
2015,07,01,14,16,22.20
2015,07,01,14,17,22.20
2015,07,01,14,18,22.30
2015,07,01,14,19,22.40
2015,07,01,14,20,22.60
2015,07,01,14,21,22.70
2015,07,01,14,22,22.80
2015,07,01,14,23,22.70
2015,07,01,14,24,22.80
2015,07,01,14,25,22.70
2015,07,01,14,26,22.80
2015,07,01,14,27,22.70
2015,07,01,14,28,22.60
2015,07,01,14,29,22.60
2015,07,01,14,30,22.60
2015,07,01,14,31,22.40
2015,07,01,14,32,22.30
2015,07,01,14,33,22.30
2015,07,01,14,34,22.30
2015,07,01,14,35,22.40
2015,07,01,14,36,22.40
2015,07,01,14,37,22.40
2015,07,01,14,38,22.40
2015,07,01,14,39,22.50
2015,07,01,14,40,22.60
2015,07,01,14,41,22.50
2015,07,01,14,42,22.40
2015,07,01,14,43,22.40
2015,07,01,14,44,22.40
2015,07,01,14,45,22.40
2015,07,01,14,46,22.40
2015,07,01,14,47,22.50
2015,07,01,14,48,22.60
2015,07,01,14,49,22.60
2015,07,01,14,50,22.60
2015,07,01,14,51,22.60
2015,07,01,14,52,22.70
2015,07,01,14,53,22.80
2015,07,01,14,54,22.80
2015,07,01,14,55,22.90
2015,07,01,14,56,22.90
2015,07,01,14,57,22.90
2015,07,01,14,58,22.90
2015,07,01,14,59,22.90
2015,07,01,15,00,22.90
2015,07,01,15,01,22.90
2015,07,01,15,02,22.90
2015,07,01,15,03,22.90
2015,07,01,15,04,22.90
2015,07,01,15,05,22.80
2015,07,01,15,06,22.80
2015,07,01,15,07,22.80
2015,07,01,15,08,22.80
2015,07,01,15,09,22.90
2015,07,01,15,10,23.00
2015,07,01,15,11,23.10
2015,07,01,15,12,23.20
2015,07,01,15,13,23.20
2015,07,01,15,14,23.20
2015,07,01,15,15,23.30
2015,07,01,15,16,23.40
2015,07,01,15,17,23.50
2015,07,01,15,18,23.50
2015,07,01,15,19,23.40
2015,07,01,15,20,23.30
2015,07,01,15,21,23.30
2015,07,01,15,22,23.30
2015,07,01,15,23,23.30
2015,07,01,15,24,23.20
2015,07,01,15,25,23.10
2015,07,01,15,26,23.10
2015,07,01,15,27,23.10
2015,07,01,15,28,23.10
2015,07,01,15,29,23.00
2015,07,01,15,30,22.90
2015,07,01,15,31,22.90
2015,07,01,15,32,22.90
2015,07,01,15,33,22.90
2015,07,01,15,34,22.90
2015,07,01,15,35,22.90
2015,07,01,15,36,22.90
2015,07,01,15,37,23.00
2015,07,01,15,38,23.10
2015,07,01,15,39,23.10
2015,07,01,15,40,23.10
2015,07,01,15,41,23.10
2015,07,01,15,42,23.10
2015,07,01,15,43,23.30
2015,07,01,15,44,23.30
2015,07,01,15,45,23.40
2015,07,01,15,46,23.30
2015,07,01,15,47,23.30
2015,07,01,15,48,23.30
2015,07,01,15,49,23.20
2015,07,01,15,50,23.20
2015,07,01,15,51,23.20
2015,07,01,15,52,23.30
2015,07,01,15,53,23.30
2015,07,01,15,54,23.40
2015,07,01,15,55,23.40
2015,07,01,15,56,23.40
2015,07,01,15,57,23.30
2015,07,01,15,58,23.30
2015,07,01,15,59,23.30
2015,07,01,16,00,23.40
2015,07,01,16,01,23.50
2015,07,01,16,02,23.70
2015,07,01,16,03,23.80
2015,07,01,16,04,24.00
2015,07,01,16,05,24.20
2015,07,01,16,06,24.30
2015,07,01,16,07,24.40
2015,07,01,16,08,24.50
2015,07,01,16,09,24.50
2015,07,01,16,10,24.50
2015,07,01,16,11,24.50
2015,07,01,16,12,24.40
2015,07,01,16,13,24.30
2015,07,01,16,14,24.10
2015,07,01,16,15,24.10
2015,07,01,16,16,24.00
2015,07,01,16,17,23.80
2015,07,01,16,18,23.70
2015,07,01,16,19,23.70
2015,07,01,16,20,23.70
2015,07,01,16,21,23.70
2015,07,01,16,22,23.90
2015,07,01,16,23,24.00
2015,07,01,16,24,24.20
2015,07,01,16,25,24.30
2015,07,01,16,26,24.40
2015,07,01,16,27,24.40
2015,07,01,16,28,24.40
2015,07,01,16,29,24.30
2015,07,01,16,30,24.30
2015,07,01,16,31,24.20
2015,07,01,16,32,24.20
2015,07,01,16,33,24.10
2015,07,01,16,34,24.30
2015,07,01,16,35,24.40
2015,07,01,16,36,24.50
2015,07,01,16,37,24.70
2015,07,01,16,38,24.90
2015,07,01,16,39,24.80
2015,07,01,16,40,24.80
2015,07,01,16,41,24.80
2015,07,01,16,42,24.80
2015,07,01,16,43,24.70
2015,07,01,16,44,24.60
2015,07,01,16,45,24.50
2015,07,01,16,46,24.40
2015,07,01,16,47,24.30
2015,07,01,16,48,24.30
2015,07,01,16,49,24.30
2015,07,01,16,50,24.30
2015,07,01,16,51,24.30
2015,07,01,16,52,24.30
2015,07,01,16,53,24.40
2015,07,01,16,54,24.40
2015,07,01,16,55,24.50
2015,07,01,16,56,24.60
2015,07,01,16,57,24.60
2015,07,01,16,58,24.70
2015,07,01,16,59,24.70
2015,07,01,17,00,24.50
2015,07,01,17,01,24.30
2015,07,01,17,02,24.20
2015,07,01,17,03,24.10
2015,07,01,17,04,24.20
2015,07,01,17,05,24.20
2015,07,01,17,06,24.30
2015,07,01,17,07,24.40
2015,07,01,17,08,24.40
2015,07,01,17,09,24.50
2015,07,01,17,10,24.50
2015,07,01,17,11,24.60
2015,07,01,17,12,24.70
2015,07,01,17,13,24.80
2015,07,01,17,14,24.90
2015,07,01,17,15,25.00
2015,07,01,17,16,25.10
2015,07,01,17,17,25.20
2015,07,01,17,18,25.20
2015,07,01,17,19,25.30